SCP
2 2 3 3 3 2 2 2 2 3 3 3 3 2 2 2 1 1 1 1 1 1 1 1 1 1 1 1 0 0 0 0 0 0 0 0 0 0 0 0 0 0 0
2 2 3 3 3 3 3 3 3 3 3 4 3 3 2 2 2 2 2 2 1 1 1 1 1 1 1 1 0 0 0 0 0 0 0 0 0 0 0 0 0 0 0
2 2 3 3 3 3 3 3 3 4 4 4 4 3 3 2 2 2 2 2 1 1 1 1 1 1 1 1 1 0 0 0 0 0 0 0 0 0 0 0 0 0 0
2 2 2 3 3 4 4 4 4 4 4 4 4 4 4 4 3 3 3 2 1 1 1 1 1 1 1 1 0 0 0 0 0 0 0 0 0 0 0 0 0 0 0
2 2 2 3 3 4 4 4 4 4 4 4 4 5 5 5 4 3 2 2 1 0 0 0 0 0 0 0 0 0 0 0 0 0 0 0 0 0 0 0 0 0 0
2 2 2 3 3 3 3 3 4 5 5 4 4 5 6 6 4 3 2 1 0 0 0 0 0 0 0 0 0 0 0 0 0 0 0 0 0 0 0 0 0 0 0
2 2 2 2 2 2 2 2 4 4 4 3 3 4 5 5 4 2 1 0 0 0 0 0 0 0 0 0 0 0 0 0 0 0 0 0 0 0 0 0 0 0 0
1 1 1 1 1 1 1 2 3 4 3 2 2 2 3 3 2 1 0 0 0 0 0 0 0 0 0 0 0 0 0 0 0 0 0 0 0 0 0 0 0 0 0
1 1 0 0 0 0 1 1 2 2 2 1 1 1 1 1 0 0 0 0 0 0 0 0 0 0 0 0 0 0 0 0 0 0 0 0 0 0 0 0 0 0 0
0 0 0 0 0 0 0 0 1 1 0 0 0 0 0 0 0 0 0 0 0 0 0 0 0 0 0 0 0 0 0 0 0 0 0 0 0 0 0 0 0 0 0
0 0 0 0 0 0 0 0 0 0 0 0 0 0 0 0 0 0 0 0 0 0 0 0 0 0 0 0 0 0 0 0 0 0 0 0 0 0 0 0 0 0 0
0 0 0 0 0 0 0 0 0 0 0 0 0 0 0 0 0 0 0 0 0 0 0 0 0 0 0 0 0 0 0 0 0 0 0 0 0 0 0 0 0 0 0
0 0 0 0 0 0 0 0 0 0 0 0 0 0 0 0 0 0 0 0 0 0 0 0 0 0 0 0 0 0 0 0 0 0 0 0 0 0 0 0 0 0 0
0 0 0 0 0 0 0 0 0 0 0 0 0 0 0 0 0 0 0 0 0 0 0 0 0 0 0 0 0 0 0 0 0 0 0 0 0 0 0 0 0 0 0
0 0 0 0 0 0 0 0 0 0 0 0 0 0 0 0 0 0 0 0 0 0 0 0 0 0 0 0 0 0 0 0 0 0 0 0 0 0 0 0 0 0 0
0 0 0 0 0 0 0 0 0 0 0 0 0 0 0 0 0 0 0 0 0 0 0 0 0 0 0 0 0 0 0 0 0 0 0 0 0 0 0 0 0 0 0
0 0 0 0 0 0 0 0 0 0 0 0 0 0 0 0 0 0 0 0 0 0 0 0 0 0 0 0 0 0 0 0 0 0 0 0 0 0 0 0 0 0 0
0 0 0 0 0 0 0 0 0 0 0 0 0 0 0 0 0 0 0 0 0 0 0 0 0 0 0 0 0 0 0 0 0 0 0 0 0 0 0 0 0 0 0
0 0 0 0 0 0 0 0 0 0 0 0 0 0 0 0 0 0 0 0 0 0 0 0 0 0 0 0 0 0 0 0 0 0 0 0 0 0 0 0 0 0 0
0 0 0 0 0 0 0 0 0 0 0 0 0 0 0 0 0 0 0 0 0 0 0 0 0 0 0 0 0 0 0 0 0 0 0 0 0 0 0 0 0 0 0
0 0 0 0 0 0 0 0 0 0 0 0 0 0 0 0 0 0 0 0 0 0 0 0 0 0 0 0 0 0 0 0 0 0 0 0 0 0 0 0 0 0 0
0 0 0 0 0 0 0 0 0 0 0 0 0 0 0 0 0 0 0 0 0 0 0 0 0 0 0 0 0 0 0 0 0 0 0 0 0 0 0 0 0 0 0
0 0 0 0 0 0 0 0 0 0 0 0 0 0 0 0 0 0 0 0 0 0 0 0 0 0 0 0 0 0 0 0 0 0 0 0 0 0 0 0 0 0 0
0 0 0 0 0 0 0 0 0 0 0 0 0 0 0 0 0 0 0 0 0 0 0 0 0 0 0 0 0 0 0 0 0 0 0 0 0 0 0 0 0 0 0
0 0 0 0 0 0 0 0 0 0 0 0 0 0 0 0 0 0 0 0 0 0 0 0 0 0 0 0 0 0 0 0 0 0 0 0 0 0 0 0 0 0 0
0 0 0 0 0 0 0 0 0 0 0 0 0 0 0 0 0 0 0 0 0 0 0 0 0 0 0 0 0 0 0 0 0 0 0 0 0 0 0 0 0 0 0
Wind_Speed
4 5 4 3 3 3 3 4 5 6 6 5 5 4 3 3 2 2 3 3 3 4 4 3 3 3 3 3 4 3 3 2 1 1 1 2 3 4 3 3 3 4 4
6 7 8 7 5 3 3 3 3 4 5 5 4 3 4 4 3 3 4 4 4 4 4 3 3 3 4 4 3 3 2 2 2 1 1 0 1 3 4 4 4 4 4
8 7 7 7 7 6 3 2 2 3 4 5 5 5 4 4 3 4 4 5 5 6 5 4 4 4 4 3 3 2 4 2 2 2 1 2 2 0 2 4 4 4 4
10 9 9 9 8 7 6 6 5 5 5 5 6 6 5 4 3 4 5 6 7 7 6 6 6 6 4 4 3 3 2 3 2 2 3 2 2 1 1 1 3 4 4
10 10 10 9 9 9 8 8 8 8 6 6 6 6 6 5 6 7 8 8 7 9 9 8 8 8 6 7 7 6 6 3 3 2 2 3 3 3 1 0 2 2 3
10 11 10 10 11 10 10 10 11 11 9 8 7 8 9 8 9 8 8 7 6 8 10 9 9 9 7 8 8 7 8 6 6 5 3 2 2 2 2 1 1 2 2
10 11 12 12 12 13 12 12 13 13 12 12 11 11 11 11 11 9 9 8 7 7 8 9 9 8 8 8 8 8 8 7 7 6 4 4 3 1 1 1 0 1 2
11 12 12 12 12 13 13 13 14 14 13 13 14 13 12 9 9 10 9 9 7 7 8 9 10 10 9 9 8 8 7 6 6 6 5 3 3 2 1 1 1 1 2
12 12 12 13 13 14 14 14 14 14 14 14 14 14 13 12 11 11 10 8 7 8 10 10 10 10 10 9 8 7 7 6 6 5 5 3 2 2 1 0 1 1 2
11 12 12 12 13 13 13 14 14 14 14 13 12 12 12 12 11 11 11 10 10 9 10 10 10 10 9 9 8 7 6 7 5 4 4 3 2 2 1 1 1 1 2
11 11 11 11 12 12 12 13 13 14 14 13 12 13 12 12 12 11 10 10 9 9 9 9 9 9 9 8 7 7 7 7 6 5 5 4 3 2 1 1 1 1 2
11 11 11 11 11 11 12 12 12 13 12 12 12 12 11 11 11 11 9 9 9 9 8 8 8 8 8 7 7 7 7 7 6 6 5 5 4 4 2 1 2 2 3
12 11 11 10 10 10 11 11 11 11 11 11 12 11 11 10 10 9 8 8 8 8 7 7 7 7 7 7 7 6 6 6 5 5 5 5 5 4 3 3 2 2 2
11 11 10 10 9 9 10 10 10 9 10 11 11 10 9 8 8 8 8 7 7 6 6 6 6 5 5 6 6 6 6 6 6 6 5 6 5 5 4 3 3 3 4
12 11 11 9 9 9 9 9 8 8 9 9 9 8 6 7 7 7 6 6 5 5 4 4 4 4 3 4 5 5 6 7 7 7 7 7 8 6 5 4 4 4 4
13 12 11 10 9 8 8 8 7 6 7 8 7 6 6 6 6 5 5 5 4 4 4 4 3 4 3 5 7 6 5 6 7 8 9 8 7 8 9 10 10 9 7
13 12 10 8 7 7 6 6 6 6 6 6 5 5 5 5 4 4 4 4 3 3 3 3 3 3 5 6 6 8 4 5 6 7 7 7 7 9 7 10 13 12 13
12 11 9 8 6 6 5 5 5 6 6 5 4 4 4 3 3 3 3 3 2 2 2 3 3 3 4 7 6 8 5 6 7 7 7 8 8 8 9 9 10 11 10
11 9 8 7 6 6 5 6 5 5 4 4 3 2 2 2 2 2 2 2 2 2 2 2 3 3 5 7 7 7 5 6 8 8 8 8 8 11 11 9 10 11 10
10 9 7 7 6 5 5 6 5 4 3 2 1 1 1 1 1 1 1 1 1 2 2 3 3 3 4 7 8 8 4 6 8 9 9 10 9 12 13 9 8 10 10
9 8 7 6 5 4 5 5 3 2 1 1 1 1 0 0 0 0 1 1 2 3 3 4 4 4 4 6 8 9 5 6 8 8 8 8 13 15 15 11 7 9 10
8 7 6 5 3 4 5 4 2 1 0 1 1 1 1 1 0 1 1 2 2 3 3 3 4 3 4 5 8 10 9 8 7 7 7 9 15 16 15 9 8 10 7
6 5 6 5 3 2 3 3 1 1 1 1 1 2 2 2 1 0 0 1 2 2 2 2 3 4 4 5 9 10 12 12 7 7 12 14 15 13 9 9 10 7 4
6 5 6 5 2 1 1 2 1 1 0 1 2 2 2 2 2 1 1 1 1 1 1 2 3 4 5 5 6 7 8 10 9 8 10 12 10 7 7 7 6 4 4
4 4 5 4 2 1 1 1 1 0 1 2 2 2 2 2 1 1 1 0 1 2 1 1 1 3 5 7 10 8 7 7 7 8 5 5 6 7 7 7 7 5 5
4 4 3 2 1 1 2 2 1 1 1 2 2 2 1 1 1 1 2 3 1 1 1 2 3 3 6 10 11 12 12 12 11 6 5 6 6 7 7 7 7 6 6
Wind_Direction
63 59 55 63 91 131 143 150 172 172 165 166 168 161 153 125 109 105 97 103 112 120 124 124 122 124 122 118 115 105 90 58 23 84 56 30 32 37 29 29 31 24 18
51 50 50 47 49 74 104 134 157 168 172 171 162 132 117 110 97 84 74 72 89 96 104 109 113 114 110 103 102 110 111 67 24 104 127 92 27 32 28 31 42 32 27
47 49 50 47 43 38 46 92 120 130 141 138 122 114 102 94 96 87 75 62 69 78 81 89 96 93 96 107 102 112 130 133 64 35 124 163 201 81 23 27 33 27 31
44 44 43 41 41 38 41 56 70 85 103 120 130 134 128 125 106 93 83 68 60 65 67 74 81 77 74 76 72 69 84 116 113 61 41 55 91 131 121 13 15 20 30
47 46 44 42 43 42 47 54 63 63 69 86 110 118 112 109 101 92 86 74 61 58 58 59 66 69 67 67 63 62 63 65 86 86 73 61 53 53 101 345 352 4 15
53 51 49 49 47 46 49 51 59 59 58 71 81 95 104 106 100 93 89 76 66 61 58 64 66 67 66 65 65 66 65 63 68 65 58 64 68 54 61 64 346 327 335
54 51 49 49 49 49 51 55 61 60 58 64 68 74 82 86 88 89 84 80 70 65 58 63 64 64 64 65 65 65 61 59 66 66 61 57 54 57 79 94 347 312 315
60 56 53 52 53 54 55 59 63 63 61 65 67 68 72 75 75 76 80 78 75 69 65 65 64 63 62 64 63 62 60 59 62 63 62 61 46 39 55 114 164 292 300
66 61 58 56 57 56 55 58 65 66 64 66 70 69 71 74 78 77 77 76 75 75 69 68 66 62 60 60 62 60 53 54 53 53 53 56 45 38 36 67 191 211 267
76 69 63 61 61 60 60 60 65 68 66 65 70 74 71 72 75 76 75 74 72 73 72 68 66 61 56 54 58 54 45 48 38 35 39 33 19 12 8 345 259 222 225
86 79 72 66 65 64 63 63 63 67 65 66 68 70 69 70 71 71 72 75 73 71 72 71 68 64 57 52 53 49 42 40 30 22 19 9 354 348 334 308 269 235 216
90 85 80 75 70 67 66 66 66 67 69 70 70 69 69 69 71 71 69 73 74 71 72 73 70 65 58 51 49 41 36 30 19 6 359 350 345 333 313 292 273 256 233
100 93 86 80 76 72 70 68 68 71 71 73 73 70 68 69 70 70 70 71 74 72 69 70 67 61 54 48 42 36 28 18 6 353 344 332 330 322 312 299 283 272 264
107 101 93 87 83 78 76 74 70 71 73 73 74 71 67 69 70 70 70 70 71 70 66 65 62 55 48 41 32 26 19 8 357 347 335 325 314 302 303 302 298 292 289
110 104 99 94 87 83 78 76 74 72 77 78 76 72 70 69 68 66 65 64 64 66 62 59 47 36 35 29 28 20 13 2 353 346 339 327 324 335 334 327 314 306 298
117 112 106 101 96 92 90 86 81 78 82 83 80 75 71 68 66 65 64 62 56 48 45 39 27 16 12 10 19 21 10 356 348 341 336 329 332 338 337 332 325 314 301
122 117 113 107 101 97 99 97 93 89 86 85 82 78 76 71 64 64 60 51 38 27 20 10 4 352 342 355 1 6 4 343 335 331 328 327 325 329 322 320 318 311 301
121 118 114 107 99 98 98 99 98 94 90 87 84 82 82 77 65 58 45 24 14 6 349 340 337 335 339 352 354 353 352 332 326 321 314 310 312 316 322 317 311 307 302
116 113 112 111 108 107 108 103 95 93 94 96 93 89 93 85 67 50 24 6 3 359 347 337 343 343 339 355 0 0 337 327 324 319 314 310 308 309 318 317 309 307 306
113 114 111 109 108 110 112 105 103 104 110 122 124 118 120 116 83 31 6 5 14 9 11 21 14 5 358 4 6 0 339 328 325 320 316 314 310 309 314 311 301 301 306
112 113 112 111 118 124 116 113 117 136 173 159 122 83 50 289 215 52 39 44 52 43 35 25 12 11 2 353 352 350 341 325 319 315 317 315 316 315 314 311 289 282 293
111 113 112 109 111 123 122 122 141 202 142 88 49 6 343 326 45 102 69 61 62 52 31 14 3 353 345 341 335 335 332 325 311 306 309 308 312 313 314 314 307 308 309
112 110 114 108 101 118 129 137 196 197 114 50 350 337 338 344 352 141 129 74 67 61 28 9 355 341 336 331 330 330 329 331 322 304 307 311 313 317 320 323 328 335 340
117 118 119 120 124 130 144 181 219 198 156 330 331 335 341 344 6 48 128 134 127 89 34 359 347 337 332 334 340 336 332 332 331 326 321 320 321 331 332 333 342 347 339
119 124 131 140 159 181 264 272 264 238 309 316 316 321 329 336 13 48 54 152 203 199 184 285 311 327 329 321 323 324 324 323 319 322 328 345 349 352 350 345 342 343 349
127 128 137 151 192 253 286 297 285 228 247 286 295 298 309 339 63 71 34 31 51 9 279 259 272 282 285 308 324 331 331 332 336 345 351 349 348 345 342 340 338 339 345